Satellite-Ground Cal/Val Region Overpasses Predictions

Prediction of Satellite NPP Overpassing Cal/Val Region: PacNW

Region Location: (Latitude: 10.00, Longitude: 139.50) to (Latitude: 22.70, Longitude: 165.60).

Table of predicted overpasses for the next 14.0 days since TLE Epoch: 2/15/2021
Interval Starting Time Starting Location Ending Time Ending Location
1 02/15/2021 15:55:12 ( 22.67, 146.01) 02/15/2021 15:58:47 ( 10.05, 143.01)
2 02/16/2021 03:04:17 ( 10.03, 153.54) 02/16/2021 03:07:52 ( 22.65, 150.53)
3 02/16/2021 15:36:10 ( 22.70, 150.77) 02/16/2021 15:39:46 ( 10.02, 147.76)
4 02/17/2021 02:45:15 ( 10.06, 158.29) 02/17/2021 02:48:50 ( 22.68, 155.28)
5 02/17/2021 15:17:08 ( 22.67, 155.53) 02/17/2021 15:20:43 ( 10.05, 152.52)
6 02/18/2021 02:26:13 ( 10.03, 163.05) 02/18/2021 02:29:48 ( 22.65, 160.05)
7 02/18/2021 14:58:07 ( 22.64, 160.28) 02/18/2021 15:01:42 ( 10.02, 157.27)
8 02/19/2021 02:09:51 ( 19.45, 165.60) 02/19/2021 02:10:46 ( 22.68, 164.80)
9 02/19/2021 03:48:40 ( 10.00, 142.44) 02/19/2021 03:52:10 ( 22.33, 139.51)
10 02/19/2021 14:39:04 ( 22.67, 165.04) 02/19/2021 14:42:39 ( 10.05, 162.04)
11 02/19/2021 16:20:34 ( 22.67, 139.67) 02/19/2021 16:20:45 ( 22.02, 139.50)
12 02/20/2021 03:29:39 ( 10.03, 147.19) 02/20/2021 03:33:14 ( 22.65, 144.19)
13 02/20/2021 16:01:32 ( 22.69, 144.43) 02/20/2021 16:05:08 ( 10.02, 141.41)
14 02/21/2021 03:10:36 ( 10.00, 151.96) 02/21/2021 03:14:12 ( 22.68, 148.94)
15 02/21/2021 15:42:30 ( 22.66, 149.18) 02/21/2021 15:46:05 ( 10.04, 146.18)
16 02/22/2021 02:51:35 ( 10.03, 156.71) 02/22/2021 02:55:10 ( 22.66, 153.70)
17 02/22/2021 15:23:28 ( 22.69, 153.95) 02/22/2021 15:27:04 ( 10.01, 150.93)
18 02/23/2021 02:32:33 ( 10.01, 161.47) 02/23/2021 02:36:09 ( 22.69, 158.46)
19 02/23/2021 15:04:26 ( 22.66, 158.70) 02/23/2021 15:08:01 ( 10.04, 155.69)
20 02/24/2021 02:14:18 ( 12.80, 165.59) 02/24/2021 02:17:06 ( 22.66, 163.22)
21 02/24/2021 03:55:01 ( 10.04, 140.85) 02/24/2021 03:56:39 ( 15.80, 139.51)
22 02/24/2021 14:45:24 ( 22.69, 163.46) 02/24/2021 14:49:00 ( 10.01, 160.45)
23 02/25/2021 03:35:59 ( 10.02, 145.61) 02/25/2021 03:39:35 ( 22.70, 142.59)
24 02/25/2021 14:29:29 ( 11.68, 165.59) 02/25/2021 14:29:57 ( 10.04, 165.21)
25 02/25/2021 16:07:52 ( 22.65, 142.84) 02/25/2021 16:11:27 ( 10.03, 139.83)
26 02/26/2021 03:16:57 ( 10.05, 150.36) 02/26/2021 03:20:32 ( 22.67, 147.36)
27 02/26/2021 15:48:50 ( 22.68, 147.60) 02/26/2021 15:52:26 ( 10.00, 144.58)
28 02/27/2021 02:57:55 ( 10.02, 155.13) 02/27/2021 03:01:30 ( 22.64, 152.12)
29 02/27/2021 15:29:48 ( 22.65, 152.35) 02/27/2021 15:33:23 ( 10.03, 149.35)
30 02/28/2021 02:38:53 ( 10.06, 159.88) 02/28/2021 02:42:28 ( 22.68, 156.87)
31 02/28/2021 15:10:46 ( 22.67, 157.11) 02/28/2021 15:14:21 ( 10.05, 154.11)
